Printer-friendly version

IAU Minor Planet Center

Minor Planet Center

MPEC 2009-V22 : 2009 VA

The following Minor Planet Electronic Circular may be linked-to from your own Web pages, but must not otherwise be redistributed electronically.


Read MPEC 2009-V21 Read MPEC 2009-V23


M.P.E.C. 2009-V22                                Issued 2009 Nov. 6, 21:27 UT

     The Minor Planet Electronic Circulars contain information on unusual
         minor planets and routine data on comets.  They are published
   on behalf of Commission 20 of the International Astronomical Union by the
          Minor Planet Center, Smithsonian Astrophysical Observatory,
                          Cambridge, MA 02138, U.S.A.

             Prepared using the Tamkin Foundation Computer Network

                              MPC@CFA.HARVARD.EDU
          URL http://www.cfa.harvard.edu/iau/mpc.html  ISSN 1523-6714

                                    2009 VA

Observations:
     K09V00A* C2009 11 06.25793 00 02 09.62 +39 09 54.9          17.7 V EV022703
     K09V00A  C2009 11 06.26515 00 01 59.33 +39 11 29.0          17.5 V EV022703
     K09V00A  C2009 11 06.27250 00 01 48.82 +39 13 05.8          17.7 V EV022703
     K09V00A  C2009 11 06.27976 00 01 38.41 +39 14 40.8          17.6 V EV022703
     K09V00A  C2009 11 06.34756 00 00 04.58 +39 29 00.3          17.2 V EV022703
     K09V00A  C2009 11 06.34810 00 00 03.87 +39 29 07.0          17.4 V EV022703
     K09V00A  C2009 11 06.38097 23 59 23.42 +39 36 11.6          17.3 V EV022703
     K09V00A  C2009 11 06.38152 23 59 22.77 +39 36 18.9          17.2 V EV022703
     K09V00A  C2009 11 06.38205 23 59 22.20 +39 36 25.8          17.2 V EV022703
     K09V00A  C2009 11 06.38259 23 59 21.58 +39 36 32.8          17.4 V EV022703

Observer details:
703 Catalina Sky Survey.  Observer A. Boattini.  Measurers E. C. Beshore,
    A. Boattini, G. J. Garradd, A. R. Gibbs, A. D. Grauer, R. E. Hill,
    R. A. Kowalski, S. M. Larson, R. H. McNaught.  0.68-m Schmidt + CCD.

Orbital elements:
2009 VA                                                  Earth MOID = 0.0003 AU
Epoch 2010 Jan. 4.0 TT = JDT 2455200.5                  MPC
M   6.92788              (2000.0)            P               Q
n   0.79821181     Peri.  238.23233     -0.20581568     -0.96720149
a   1.1509522      Node   224.44295     +0.95429079     -0.16467914
e   0.2096968      Incl.   12.27510     +0.21672333     -0.19339612
P   1.23           H   28.6           G   0.15           U   9
Residuals in seconds of arc
091106 703  0.0-  0.1+    091106 703  0.1+  0.1-    091106 703  0.2+  0.0+
091106 703  0.1+  0.8-    091106 703  0.0+  0.3-    091106 703  0.1+  0.1-
091106 703  0.1+  0.0+    091106 703  0.1-  0.1+
091106 703  0.2-  0.9+    091106 703  0.3-  0.1+

Ephemeris:
2009 VA                  a,e,i = 1.15, 0.21, 12                  q = 0.9096
Date    TT    R. A. (2000) Decl.     Delta      r     Elong.  Phase     V
2009 11 05.0  00 04.91   +35 56.7    0.00602  0.996   139.9    39.9    19.1
2009 11 05.2  00 04.85   +36 05.8    0.00540  0.996   139.7    40.1    18.8
2009 11 05.4  00 04.70   +36 30.6    0.00478  0.995   139.4    40.4    18.6
2009 11 05.6  00 04.39   +37 20.4    0.00415  0.995   139.0    40.9    18.3
2009 11 05.8  00 04.15   +37 57.5    0.00353  0.994   138.6    41.3    17.9
2009 11 06.0  00 08.70   +24 00.6    0.00315  0.994   142.6    37.3    17.6
2009 11 06.2  00 16.09   -05 44.8    0.00244  0.993   137.2    42.7    17.2
2009 11 06.4  22 33.52   +82 07.3    0.00335  0.992   109.5    70.4    18.7
2009 11 06.6  23 51.57   +59 37.7    0.00143  0.992   126.1    53.8    16.3
2009 11 06.8  00 14.29   +01 49.2    0.00021  0.991   139.6    40.4    11.7
2009 11 07.0  12 01.53   -44 19.5    0.00055  0.991    44.9   135.0    18.5

2009 11 08    11 51.30   -60 03.7    0.00535  0.988    54.4   125.4    22.5
2009 11 09    11 50.62   -60 55.0    0.0101   0.985    55.0   124.5    23.8
2009 11 10    11 50.52   -61 13.2    0.0149   0.982    55.4   123.9    24.6
2009 11 11    11 50.63   -61 22.3    0.0196   0.979    55.6   123.5    25.1

Sonia Keys                   (C) Copyright 2009 MPC           M.P.E.C. 2009-V22

Read MPEC 2009-V21 Read MPEC 2009-V23

Valid HTML 4.01!